Вернуться в каталог

USA 561

АктивенВоенныеVLEO
NORAD 65707·PAYLOAD·🇺🇸 United States

Запущен Sep 22, 2025 с Vandenberg Space Force Base

Loading…

Ближайшие Пролёты (ближайшие 24 часа)

TLE

УстаревшееSource: Mike McCants

Эпоха: Aug 11, 2026, 21:10 UTC

1 65707U 25213D   26223.88257146 0.00000000  00000-0  00000-0 0    07
2 65707  70.0170 247.1162 0003000 224.4453 135.5547 14.96713300    06

Отслеживайте USA 561 в реальном времени с AllMySat

Download on the App Store